Flag for U.S.A. Weather past 2 weeks in Houston, Texas, U.S.A.

Now
74 °F

Passing clouds.


Feels Like: 74 °F
Forecast: 70 / 93 °F
Wind: No wind

Location: Houston Hobby Airport

Current Time: Aug 28, 2015 at 3:38:42 AM

Latest Report: Aug 28, 2015 at 2:53 AM


Visibility: 10 mi

Pressure: 29.98 "Hg

Humidity: 79%

Dew point: 67 °F

Location of HoustonLocation

Historic Weather in Houston — Graph

°F

Houston temperature yesterday

Maximum temperature yesterday: 91 °F (at 4:53 PM)
Minimum temperature yesterday: 72 °F (at 2:53 AM)
Average temperature yesterday: 81 °F

Past Weeks' High & Low Weather Summary

 TemperatureHumidityPressure
High97 °F (Aug 13, 3:53 PM)98% (Aug 16, 3:53 AM)30.14 "Hg (Aug 16, 3:53 AM)
Low72 °F (Aug 27, 2:53 AM)32% (Aug 14, 4:53 PM)29.79 "Hg (Aug 19, 6:53 PM)
Average83 °F74%29.97 "Hg
* Reported Aug 13 1:53 AM — Aug 28 1:53 AM, Houston, Weather by CustomWeather, © 2015

Note: Actual official high and low records may vary slightly from our data, if they occured in-between our weather recording intervals... More about our weather records

Advertising

Houston weather history for previous 24 hours

 ConditionsComfort  
Time TempWeatherWind HumidityBarometerVisibility
1:53 AM
Fri, Aug 28
75 °FPassing clouds.3 mph76%29.99 "Hg10 mi
12:53 AM74 °FPassing clouds.No wind79%30.01 "Hg10 mi
11:53 PM
Thu, Aug 27
77 °FPassing clouds.3 mph71%30.01 "Hg10 mi
10:53 PM78 °FPassing clouds.5 mph66%30.01 "Hg10 mi
9:53 PM78 °FPassing clouds.3 mph71%30.00 "Hg10 mi
8:53 PM80 °FPassing clouds.5 mph64%29.98 "Hg10 mi
7:53 PM83 °FPartly sunny.No wind53%29.98 "Hg10 mi
6:53 PM87 °FPartly sunny.6 mph42%29.97 "Hg10 mi
5:53 PM89 °FPartly sunny.6 mph38%29.98 "Hg10 mi
4:53 PM91 °FPartly sunny.6 mph36%29.99 "Hg10 mi
3:53 PM90 °FPartly sunny.No wind37%30.00 "Hg10 mi
2:53 PM89 °FScattered clouds.3 mph39%30.03 "Hg10 mi
1:53 PM90 °FScattered clouds.3 mph41%30.05 "Hg10 mi
12:53 PM88 °FScattered clouds.5 mph40%30.07 "Hg10 mi
11:53 AM87 °FScattered clouds.5 mph45%30.08 "Hg10 mi
10:53 AM85 °FScattered clouds.6 mph50%30.09 "Hg10 mi
9:53 AM83 °FScattered clouds.9 mph53%30.09 "Hg10 mi
8:53 AM79 °FScattered clouds.7 mph65%30.08 "Hg10 mi
7:53 AM74 °FPassing clouds.7 mph76%30.07 "Hg10 mi
6:53 AM72 °FPassing clouds.No wind78%30.06 "Hg10 mi
5:53 AM72 °FPassing clouds.No wind78%30.05 "Hg10 mi
4:53 AM73 °FClear.3 mph76%30.04 "Hg10 mi
3:53 AM73 °FClear.5 mph76%30.03 "Hg10 mi
Weather by CustomWeather, © 2015

See weather overviewHow to use our weather pages